Date String (YYYY-MM-DD hh:mm:ss) UTC,Instrument flags,Ambient pressure (hPa),Sample flow (lpm),Bypass flow (lpm),Sample temperature (°C),Ambient temperature (°C),ASC tube jacket temperature (°C),LED temperature (°C),Box temperature (°C),Sample RH (%),Span deviation,Mass concentration (μg/m³),Mass concentration (μg/m³),Mass concentration (μg/m³)
DateTimeUTC,F1_M11,P_M11,Q1_M11,Q2_M11,T1_M11,T2_M11,T3_M11,T4_M11,T5_M11,U1_M11,ZSPAN_M11,X0_M11,X2_M11,X1_M11
2022-11-25 00:00:00,,0835.0,4.99,0.00,25.5,23.9,00.0,34.5,27.3,10.7,0000.0,0001.63,0000.64,0000.54
2022-11-25 00:01:00,,0835.0,5.00,0.00,25.5,23.9,00.0,34.5,27.3,10.7,0000.0,0001.61,0000.62,0000.52
2022-11-25 00:02:00,,0835.0,5.01,0.00,25.5,23.8,00.0,34.5,27.3,10.7,0000.0,0001.71,0000.62,0000.52
2022-11-25 00:03:00,,0835.0,4.98,0.00,25.5,23.8,00.0,34.5,27.2,10.7,0000.0,0001.71,0000.61,0000.51
2022-11-25 00:04:00,,0835.0,5.02,0.00,25.4,23.8,00.0,34.5,27.2,10.7,0000.0,0001.68,0000.59,0000.50
2022-11-25 00:05:00,,0835.0,4.99,0.00,25.4,23.8,00.0,34.4,27.2,10.7,0000.0,0001.68,0000.59,0000.50
2022-11-25 00:06:00,,0835.0,5.01,0.00,25.4,23.7,00.0,34.4,27.1,10.7,0000.0,0001.47,0000.58,0000.50
2022-11-25 00:07:00,,0835.0,5.00,0.00,25.4,23.7,00.0,34.4,27.1,10.7,0000.0,0000.96,0000.57,0000.50
2022-11-25 00:08:00,,0834.9,4.99,0.00,25.3,23.7,00.0,34.4,27.1,10.8,0000.0,0000.90,0000.57,0000.50
2022-11-25 00:09:00,,0835.0,5.02,0.00,25.3,23.6,00.0,34.4,27.1,10.8,0000.0,0000.92,0000.58,0000.50
2022-11-25 00:10:00,,0834.9,4.99,0.00,25.3,23.6,00.0,34.4,27.1,10.8,0000.0,0000.88,0000.56,0000.50
2022-11-25 00:11:00,,0834.8,4.99,0.00,25.3,23.5,00.0,34.3,27.0,10.9,0000.0,0000.88,0000.56,0000.50
2022-11-25 00:12:00,,0834.8,5.02,0.00,25.2,23.5,00.0,34.3,27.0,10.9,0000.0,0000.89,0000.58,0000.51
2022-11-25 00:13:00,,0834.8,4.99,0.00,25.2,23.5,00.0,34.3,26.9,11.0,0000.0,0000.94,0000.62,0000.52
2022-11-25 00:14:00,,0834.8,5.00,0.00,25.2,23.5,00.0,34.3,26.9,10.9,0000.0,0001.00,0000.65,0000.53
2022-11-25 00:15:00,,0834.8,5.00,0.00,25.2,23.5,00.0,34.2,26.9,10.9,0000.0,0001.06,0000.70,0000.56
2022-11-25 00:16:00,,0834.8,4.99,0.00,25.1,23.4,00.0,34.2,26.9,10.9,0000.0,0001.12,0000.74,0000.60
2022-11-25 00:17:00,,0834.9,5.02,0.00,25.1,23.4,00.0,34.2,26.9,10.9,0000.0,0001.32,0000.79,0000.64
2022-11-25 00:18:00,,0834.8,5.00,0.00,25.1,23.3,00.0,34.2,26.9,11.0,0000.0,0001.59,0000.84,0000.67
2022-11-25 00:19:00,,0834.8,4.99,0.00,25.1,23.3,00.0,34.2,26.9,11.0,0000.0,0001.73,0000.90,0000.70
2022-11-25 00:20:00,,0834.8,5.00,0.00,25.1,23.3,00.0,34.1,26.8,11.0,0000.0,0001.85,0000.93,0000.72
2022-11-25 00:21:00,,0834.8,5.00,0.00,25.0,23.2,00.0,34.1,26.8,11.0,0000.0,0001.95,0000.98,0000.74
2022-11-25 00:22:00,,0834.7,5.00,0.00,25.0,23.2,00.0,34.1,26.8,11.0,0000.0,0001.99,0001.01,0000.77
2022-11-25 00:23:00,,0834.7,5.00,0.00,25.0,23.2,00.0,34.1,26.7,11.0,0000.0,0002.02,0001.02,0000.79
2022-11-25 00:24:00,,0834.7,5.01,0.00,25.0,23.2,00.0,34.0,26.7,11.1,0000.0,0001.97,0001.00,0000.78
2022-11-25 00:25:00,,0834.7,5.00,0.00,24.9,23.1,00.0,34.0,26.7,11.1,0000.0,0001.99,0001.03,0000.80
2022-11-25 00:26:00,,0834.7,5.00,0.00,24.9,23.1,00.0,34.0,26.6,11.1,0000.0,0002.04,0001.05,0000.81
2022-11-25 00:27:00,,0834.7,5.00,0.00,24.9,23.1,00.0,34.0,26.6,11.1,0000.0,0002.08,0001.05,0000.80
2022-11-25 00:28:00,,0834.7,5.01,0.00,24.9,23.0,00.0,34.0,26.6,11.2,0000.0,0001.97,0001.04,0000.79
2022-11-25 00:29:00,,0834.7,4.99,0.00,24.9,23.0,00.0,33.9,26.6,11.2,0000.0,0001.70,0001.03,0000.79
2022-11-25 00:30:00,,0834.7,5.01,0.00,24.8,23.0,00.0,33.9,26.6,11.2,0000.0,0001.62,0001.00,0000.79
2022-11-25 00:31:00,,0834.7,4.99,0.00,24.8,23.0,00.0,33.9,26.6,11.2,0000.0,0001.51,0001.01,0000.81
2022-11-25 00:32:00,,0834.7,5.01,0.00,24.8,22.9,00.0,33.9,26.6,11.2,0000.0,0001.46,0001.01,0000.83
2022-11-25 00:33:00,,0834.7,4.98,0.00,24.8,22.9,00.0,33.8,26.5,11.2,0000.0,0001.78,0001.06,0000.86
2022-11-25 00:34:00,,0834.7,5.01,0.00,24.7,22.9,00.0,33.8,26.5,11.3,0000.0,0001.95,0001.14,0000.90
2022-11-25 00:35:00,,0834.7,4.99,0.00,24.7,22.9,00.0,33.8,26.4,11.3,0000.0,0001.88,0001.16,0000.95
2022-11-25 00:36:00,,0834.7,5.01,0.00,24.7,22.9,00.0,33.8,26.4,11.3,0000.0,0001.87,0001.16,0000.97
2022-11-25 00:37:00,,0834.7,5.00,0.00,24.7,22.9,00.0,33.7,26.3,11.3,0000.0,0001.84,0001.17,0001.00
2022-11-25 00:38:00,,0834.7,5.00,0.00,24.6,22.8,00.0,33.7,26.3,11.3,0000.0,0001.86,0001.21,0001.03
2022-11-25 00:39:00,,0834.7,5.01,0.00,24.6,22.8,00.0,33.7,26.3,11.4,0000.0,0001.94,0001.26,0001.06
2022-11-25 00:40:00,,0834.7,4.99,0.00,24.6,22.8,00.0,33.7,26.3,11.4,0000.0,0002.05,0001.28,0001.09
2022-11-25 00:41:00,,0834.7,5.01,0.00,24.6,22.8,00.0,33.7,26.3,11.4,0000.0,0002.21,0001.35,0001.12
2022-11-25 00:42:00,,0834.7,5.00,0.00,24.6,22.8,00.0,33.6,26.3,11.4,0000.0,0002.31,0001.38,0001.13
2022-11-25 00:43:00,,0834.7,5.00,0.00,24.5,22.7,00.0,33.6,26.3,11.4,0000.0,0002.95,0001.43,0001.16
2022-11-25 00:44:00,,0834.7,4.99,0.00,24.5,22.7,00.0,33.6,26.2,11.4,0000.0,0003.14,0001.45,0001.18
2022-11-25 00:45:00,,0834.6,5.00,0.00,24.5,22.7,00.0,33.6,26.2,11.4,0000.0,0002.98,0001.42,0001.18
2022-11-25 00:46:00,,0834.7,5.00,0.00,24.5,22.7,00.0,33.5,26.2,11.4,0000.0,0003.08,0001.45,0001.18
2022-11-25 00:47:00,,0834.7,5.01,0.00,24.4,22.7,00.0,33.5,26.2,11.4,0000.0,0003.08,0001.47,0001.20
2022-11-25 00:48:00,,0834.7,4.99,0.00,24.4,22.6,00.0,33.5,26.2,11.5,0000.0,0003.09,0001.47,0001.20
2022-11-25 00:49:00,,0834.7,5.01,0.00,24.4,22.6,00.0,33.5,26.2,11.5,0000.0,0003.06,0001.46,0001.22
2022-11-25 00:50:00,,0834.7,4.99,0.00,24.4,22.5,00.0,33.5,26.2,11.5,0000.0,0003.08,0001.49,0001.25
2022-11-25 00:51:00,,0834.7,5.01,0.00,24.4,22.4,00.0,33.5,26.1,11.5,0000.0,0003.11,0001.54,0001.26
2022-11-25 00:52:00,,0834.7,4.99,0.00,24.3,22.4,00.0,33.4,26.1,11.6,0000.0,0003.08,0001.55,0001.29
2022-11-25 00:53:00,,0834.7,5.01,0.00,24.3,22.4,00.0,33.4,26.0,11.6,0000.0,0002.99,0001.56,0001.32
2022-11-25 00:54:00,,0834.7,4.99,0.00,24.3,22.4,00.0,33.4,25.9,11.6,0000.0,0002.73,0001.59,0001.35
2022-11-25 00:55:00,,0834.8,5.01,0.00,24.2,22.4,00.0,33.4,25.9,11.6,0000.0,0002.17,0001.59,0001.36
2022-11-25 00:56:00,,0834.8,4.99,0.00,24.2,22.4,00.0,33.3,25.9,11.7,0000.0,0002.19,0001.62,0001.39
2022-11-25 00:57:00,,0834.8,5.01,0.00,24.2,22.4,00.0,33.3,25.9,11.7,0000.0,0002.12,0001.62,0001.43
2022-11-25 00:58:00,,0834.8,4.99,0.00,24.2,22.4,00.0,33.3,25.9,11.7,0000.0,0002.19,0001.66,0001.46
2022-11-25 00:59:00,,0834.8,4.99,0.00,24.2,22.4,00.0,33.3,25.9,11.7,0000.0,0002.30,0001.69,0001.48
